User: anonymous   Login
Location: Los Ranchitos
(37.9930°N, 122.5425°W)
Time: 08:41:13
(UTC+00:00)
Language:

Cosmos 921 Rocket - Orbit

View from above orbital plane
View from above orbital plane
View from above satellite
View from above satellite

Ground track
Ground track

The orbit data is extracted from the following two-line orbital elements,

1 10096U 77055B   20329.60180138 +.00000092 +00000-0 +11978-4 0  9994
2 10096 075.8336 287.6848 0043533 246.2385 113.4237 14.88723904348991
Epoch (UTC): 24 November 2020 14:26:35
Eccentricity: 0.0043533
inclination: 75.8336°
perigee height: 571 km
apogee height: 632 km
right ascension of ascending node: 287.6848°
argument of perigee: 246.2385°
revolutions per day: 14.88723904
mean anomaly at epoch: 113.4237°
orbit number at epoch: 34899

The dashed part of the orbit path shows where the satellite is in the earth's shadow,  

DLR